124P/Mrkos (2002)

Japanese version
Home page
Total 6,336 html files since Dec. 4, 1995
Updated on January 9, 2003

---------------------------------------------------------------------

* Profile

* Orbital Elements

   The following improved orbital elements by Kenji Muraoka, are 
  from 72 observations 1991 to 1999, perturbations by 9 Plantes, 
  Moon and 5 minor planets were taken into account. 
   The mean residual is +/- 0.82 arc seconds.

      Epoch  =  2002 July 25.0  TT       JDT = 2452480.5
          T  =  2002 July 27.02142       +/- 0.00033 (m.e.) TT
       Peri. =  181.24414                +/- 0.00025
       Node  =    1.39022                +/- 0.00002   (2000.0)
       Incl. =   31.35226                +/- 0.00005
          q  =    1.4670527              +/- 0.0000018 AU
          e  =    0.5426428              +/- 0.0000003
          a  =    3.2076742              +/- 0.0000014 AU
          n  =    0.17156105             +/- 0.00000011
          P  =    5.745                  +/- 0.0000038  years

* Finding Charts

* Magnitudes Graph

        m1 = 15.8 + 5 log d + 5.0 log r

---------------------------------------------------------------------

The orbital elements are calculated by Kenji Muraoka.
The charts are made with StellaNavigator Ver.2.0 for Windows (AstroArts / ASCII).
The magnitudes graphs are made with Comet for Windows.

---------------------------------------------------------------------

Copyright(C) 1995-2008 Seiichi Yoshida (comet@aerith.net). All rights reserved.